Location: Delia
(51.6321°N, 112.3740°W)
Time: 20:39:01
(UTC+00:00)

Envisat - Pass Details

Date: 05 December 2021
Orbit: 764 x 766 km, 98.2° (Epoch: 26 January)

Event Time Altitude Azimuth Distance (km) Brightness Sun altitude
Rises 11:34:09 0° 23° (NNE) 3,247 6.6 -33.7°
Reaches altitude 10° 11:36:52 10° 36° (NE) 2,315 5.9 -33.3°
Maximum altitude 11:41:03 25° 92° (E) 1,514 5.1 -32.7°
Drops below altitude 10° 11:45:11 10° 147° (SSE) 2,300 5.8 -32.0°
Sets 11:47:52 0° 160° (SSE) 3,220 6.4 -31.6°
